Location: Battery Park City
(40.7115°N, 74.0163°W)
Time: 16:31:04
(UTC+00:00)

Nadezhda 4 Rocket - Pass Details

Date: 08 December 2019
Orbit: 949 x 993 km, 82.9° (Epoch: 23 January)

Event Time Altitude Azimuth Distance (km) Brightness Sun altitude
Rises 21:55:15 0° 166° (SSE) 3,692 7.2 -5.3°
Reaches altitude 10° 21:57:51 10° 160° (SSE) 2,748 6.5 -5.8°
Maximum altitude 22:03:49 45° 90° (E) 1,319 4.4 -6.8°
Drops below altitude 10° 22:09:47 10° 20° (NNE) 2,759 6.0 -7.8°
Sets 22:12:24 0° 14° (NNE) 3,707 6.7 -8.3°
